BV5AB-13 Weather Reports


time (UTC)temp
F
wind
direction
speed
knots
gust
knots
rain 1hr
in
rain 24hr
in
rain mn
in
humidity
%
barometer
mb
20260508064703 88 10 6.1 13.0 0.00 0.00 0.00 59 1001.0
20260508063703 88 10 5.2 13.0 0.00 0.00 0.00 60 1001.1
20260508062703 88 0 4.3 13.0 0.00 0.00 0.00 63 1001.2
20260508061704 87 340 2.6 13.0 0.00 0.00 0.00 63 1001.3
20260508060704 87 330 5.2 11.3 0.00 0.00 0.00 62 1001.3
20260508055704 87 310 4.3 11.3 0.00 0.00 0.00 58 1001.4
20260508054705 87 290 4.3 11.3 0.00 0.00 0.00 58 1001.6
20260508053703 87 330 3.5 11.3 0.00 0.00 0.00 58 1001.8
20260508052703 89 320 3.5 11.3 0.00 0.00 0.00 54 1001.9
20260508051704 87 280 4.3 11.3 0.00 0.00 0.00 59 1002.1
20260508050704 88 320 3.5 10.4 0.00 0.00 0.00 57 1002.1
20260508045703 87 340 3.5 10.4 0.00 0.00 0.00 55 1002.1
20260508044703 88 340 1.7 10.4 0.00 0.00 0.00 54 1002.2
20260508043704 88 30 4.3 10.4 0.00 0.00 0.00 56 1002.3
20260508042704 87 240 1.7 10.4 0.00 0.00 0.00 60 1002.4
20260508041703 87 340 2.6 10.4 0.00 0.00 0.00 57 1002.7
20260508040703 87 330 3.5 8.7 0.00 0.00 0.00 60 1002.8
20260508035703 86 280 1.7 8.7 0.00 0.00 0.00 63 1003.1
20260508034704 85 350 2.6 8.7 0.00 0.00 0.00 60 1003.2
20260508033704 86 330 1.7 8.7 0.00 0.00 0.00 58 1003.3
20260508032704 85 0 2.6 8.7 0.00 0.00 0.00 60 1003.4
20260508031703 85 0 1.7 8.7 0.00 0.00 0.00 61 1003.4
20260508030703 85 320 2.6 11.3 0.00 0.00 0.00 59 1003.5
20260508025703 85 300 2.6 11.3 0.00 0.00 0.00 62 1003.5
20260508024703 84 310 3.5 11.3 0.00 0.00 0.00 63 1003.6
20260508023703 84 320 2.6 11.3 0.00 0.00 0.00 65 1003.7
20260508022705 84 350 2.6 11.3 0.00 0.00 0.00 65 1003.8
20260508021703 84 20 0.9 11.3 0.00 0.00 0.00 65 1003.8
20260508020703 83 0 3.5 7.0 0.00 0.00 0.00 69 1003.8
20260508015704 83 340 3.5 7.0 0.00 0.00 0.00 67 1004.0
20260508014704 82 330 4.3 7.0 0.00 0.00 0.00 67 1004.0
20260508013703 83 350 1.7 7.0 0.00 0.00 0.00 66 1004.0
20260508012704 82 330 0.9 7.0 0.00 0.00 0.00 68 1004.0
20260508011703 82 0 1.7 7.0 0.00 0.00 0.00 69 1003.9
20260508010703 81 330 3.5 6.1 0.00 0.00 0.00 68 1003.9
20260508005703 81 330 1.7 6.1 0.00 0.00 0.00 67 1003.8
20260508004703 80 330 1.7 6.1 0.00 0.00 0.00 69 1003.8
20260508003703 81 0 2.6 6.1 0.00 0.00 0.00 68 1003.7
20260508002703 80 20 2.6 6.1 0.00 0.00 0.00 69 1003.6
20260508001703 80 40 0.9 6.1 0.00 0.00 0.00 70 1003.4
20260508000703 80 10 2.6 4.3 0.00 0.00 0.00 72 1003.4
20260507235703 79 0 2.6 4.3 0.00 0.00 0.00 72 1003.5
20260507234703 79 350 1.7 4.3 0.00 0.00 0.00 74 1003.5
20260507233703 78 330 1.7 4.3 0.00 0.00 0.00 77 1003.5
20260507232703 78 350 1.7 4.3 0.00 0.00 0.00 77 1003.3
20260507231703 78 350 1.7 4.3 0.00 0.00 0.00 76 1003.2
20260507230703 78 0 0.0 2.6 0.00 0.00 0.00 78 1003.1
20260507225703 78 0 0.0 2.6 0.00 0.00 0.00 77 1003.0
20260507224703 78 70 0.9 2.6 0.00 0.00 0.00 78 1002.8
20260507223703 77 0 0.0 2.6 0.00 0.00 0.00 80 1002.8
20260507222703 77 0 0.0 2.6 0.00 0.00 0.00 83 1002.8
20260507221703 77 0 0.0 2.6 0.00 0.00 0.00 82 1002.8
20260507220703 76 150 0.9 3.5 0.00 0.00 0.00 84 1002.7
20260507215705 76 150 0.9 3.5 0.00 0.00 0.00 83 1002.6
20260507214704 76 0 0.0 3.5 0.00 0.00 0.00 82 1002.6
20260507213703 76 0 0.0 3.5 0.00 0.00 0.00 84 1002.5
20260507212704 76 0 0.0 3.5 0.00 0.00 0.00 84 1002.5
20260507211703 76 0 0.0 3.5 0.00 0.00 0.00 83 1002.5
20260507210703 76 0 0.0 4.3 0.00 0.00 0.00 84 1002.4
20260507205704 76 0 0.0 4.3 0.00 0.00 0.00 83 1002.3
20260507204704 77 10 0.9 4.3 0.00 0.00 0.00 82 1002.3
20260507203703 77 10 0.9 4.3 0.00 0.00 0.00 82 1002.2
20260507202705 77 0 0.0 4.3 0.00 0.00 0.00 82 1002.1
20260507201703 77 350 0.9 4.3 0.00 0.00 0.00 81 1002.2
20260507200704 77 20 1.7 1.7 0.00 0.00 0.00 82 1002.1
20260507195704 77 0 1.7 1.7 0.00 0.00 0.00 81 1002.1
20260507194703 77 30 1.7 1.7 0.00 0.00 0.00 82 1002.0
20260507193703 76 0 0.0 1.7 0.00 0.00 0.00 84 1001.9
20260507192704 76 0 0.0 1.7 0.00 0.00 0.00 84 1001.8
20260507191703 75 0 0.0 1.7 0.00 0.00 0.00 84 1001.7
20260507190703 75 0 0.0 3.5 0.00 0.00 0.00 84 1001.7
20260507185703 75 160 0.9 3.5 0.00 0.00 0.00 84 1001.6
20260507184703 75 150 0.9 3.5 0.00 0.00 0.00 84 1001.6
20260507183703 75 0 0.0 3.5 0.00 0.00 0.00 83 1001.6
20260507182703 76 0 0.0 3.5 0.00 0.00 0.00 84 1001.6
20260507181703 76 0 0.0 3.5 0.00 0.00 0.00 84 1001.7
20260507180703 76 140 0.9 1.7 0.00 0.00 0.00 82 1001.7
20260507175704 76 140 0.9 1.7 0.00 0.00 0.00 83 1001.8
20260507174704 76 140 0.9 1.7 0.00 0.00 0.00 83 1001.8
20260507173703 77 140 0.9 1.7 0.00 0.00 0.00 82 1001.8
20260507172704 77 0 0.0 1.7 0.00 0.00 0.00 82 1001.8
20260507171704 77 0 0.0 1.7 0.00 0.00 0.00 80 1001.9
20260507170705 78 0 0.0 2.6 0.00 0.00 0.00 80 1002.0
20260507165703 77 0 0.0 2.6 0.00 0.00 0.00 81 1002.1
20260507164704 78 0 0.0 2.6 0.00 0.00 0.00 79 1002.1
20260507163703 78 0 0.0 2.6 0.00 0.00 0.00 78 1002.1
20260507162704 78 0 0.0 2.6 0.00 0.00 0.00 79 1002.1
20260507161703 77 0 0.0 2.6 0.00 0.00 0.00 80 1002.2
20260507160703 77 0 0.0 4.3 0.00 0.00 0.00 80 1002.4
20260507155703 77 0 0.0 4.3 0.00 0.00 0.00 81 1002.4
20260507154703 77 0 0.0 4.3 0.00 0.00 0.00 80 1002.5
20260507153703 77 0 0.0 4.3 0.00 0.00 0.00 80 1002.5
20260507152704 78 0 0.0 4.3 0.00 0.00 0.00 78 1002.6
20260507151703 78 180 1.7 4.3 0.00 0.00 0.00 76 1002.7
20260507150704 79 210 1.7 4.3 0.00 0.00 0.00 75 1002.7
20260507145705 79 230 0.9 4.3 0.00 0.00 0.00 76 1002.7
20260507144704 78 220 0.9 4.3 0.00 0.00 0.00 79 1002.7
20260507143704 77 180 0.9 4.3 0.00 0.00 0.00 80 1002.7
20260507142705 78 160 0.9 4.3 0.00 0.00 0.00 78 1002.5
20260507141704 78 170 0.9 4.3 0.00 0.00 0.00 79 1002.5
20260507140703 78 190 0.9 7.0 0.00 0.00 0.00 78 1002.5
20260507135704 78 210 0.9 7.0 0.00 0.00 0.00 78 1002.4
20260507134703 79 200 0.9 7.0 0.00 0.00 0.00 77 1002.4
20260507133703 79 170 0.9 7.0 0.00 0.00 0.00 77 1002.4
20260507132704 79 160 0.0 7.0 0.00 0.00 0.00 77 1002.3
20260507131703 78 160 0.9 7.0 0.00 0.00 0.00 78 1002.2
20260507130703 79 190 0.9 5.2 0.00 0.00 0.00 76 1002.2
20260507125703 80 200 1.7 5.2 0.00 0.00 0.00 75 1002.2
20260507124704 79 200 2.6 5.2 0.00 0.00 0.00 75 1002.2
20260507123703 79 180 1.7 5.2 0.00 0.00 0.00 76 1002.1
20260507122705 80 180 0.9 5.2 0.00 0.00 0.00 74 1002.2
20260507121704 80 130 0.9 5.2 0.00 0.00 0.00 71 1002.0
20260507120703 80 0 0.0 5.2 0.00 0.00 0.00 68 1002.0
20260507115703 79 0 0.0 5.2 0.00 0.00 0.00 71 1002.0
20260507114703 80 0 0.0 5.2 0.00 0.00 0.00 70 1001.8
20260507113703 80 0 0.0 5.2 0.00 0.00 0.00 69 1001.7
20260507112707 81 310 0.9 5.2 0.00 0.00 0.00 65 1001.7
20260507111703 81 310 1.7 5.2 0.00 0.00 0.00 66 1001.6
20260507110703 81 280 0.9 7.8 0.00 0.00 0.00 67 1001.5
20260507105704 81 300 0.9 7.8 0.00 0.00 0.00 68 1001.4
20260507104703 81 310 1.7 7.8 0.00 0.00 0.00 67 1001.2
20260507103704 81 330 0.9 7.8 0.00 0.00 0.00 68 1001.2
20260507102704 81 330 0.9 7.8 0.00 0.00 0.00 69 1001.1
20260507101703 81 310 1.7 7.8 0.00 0.00 0.00 68 1000.9
20260507100703 81 0 1.7 10.4 0.00 0.00 0.00 67 1000.8
20260507095704 81 10 2.6 10.4 0.00 0.00 0.00 67 1000.8
20260507094703 81 340 5.2 10.4 0.00 0.00 0.00 70 1000.8
20260507093704 82 330 2.6 10.4 0.00 0.00 0.00 70 1000.8
20260507092704 82 330 3.5 10.4 0.00 0.00 0.00 68 1000.7
20260507091704 82 350 5.2 10.4 0.00 0.00 0.00 68 1000.6
20260507090703 83 350 4.3 12.2 0.00 0.00 0.00 66 1000.5
20260507085704 83 310 2.6 12.2 0.00 0.00 0.00 64 1000.4
20260507084704 84 320 2.6 12.2 0.00 0.00 0.00 63 1000.3
20260507083703 85 320 3.5 12.2 0.00 0.00 0.00 60 1000.2
20260507082703 85 270 1.7 12.2 0.00 0.00 0.00 62 1000.2
20260507081705 86 320 3.5 12.2 0.00 0.00 0.00 58 1000.1
20260507080703 86 270 3.5 13.0 0.00 0.00 0.00 56 1000.0
20260507075703 86 250 4.3 13.0 0.00 0.00 0.00 56 1000.0
20260507074703 87 260 5.2 13.0 0.00 0.00 0.00 56 1000.1
20260507073703 88 280 3.5 13.0 0.00 0.00 0.00 55 1000.1
20260507072703 87 250 3.5 13.0 0.00 0.00 0.00 57 1000.1
20260507071703 87 280 4.3 13.0 0.00 0.00 0.00 56 1000.0
20260507070703 87 260 4.3 10.4 0.00 0.00 0.00 56 1000.1
20260507065704 88 230 5.2 10.4 0.00 0.00 0.00 57 1000.1